Location: Passo di Treia
(43.2833°N, 13.3333°E)
Time: 05:14:17
(UTC+00:00)

Cosmos 1908 Rocket - Pass Details

Date: 09 December 2019
Orbit: 605 x 633 km, 82.5° (Epoch: 24 January)

Event Time Altitude Azimuth Distance (km) Brightness Sun altitude
Rises 17:05:03 0° 351° (N) 2,910 6.9 -16.5°
Reaches altitude 10° 17:07:17 10° 352° (N) 1,994 6.1 -16.9°
Maximum altitude 17:11:43 89° 269° (W) 622 3.5 -17.7°
Drops below altitude 10° 17:16:04 10° 174° (S) 1,961 6.2 -18.4°
Sets 17:18:16 0° 174° (S) 2,857 7.1 -18.8°
